Regional Weather Roundup
Issued by NWS Kansas City/Pleasant Hill, MO

Home | Current Version | Previous Version | Graphics & Text | Print | Product List | Glossary Off
Versions: 1 2 3 4 5 6 7 8 9 10 11 12 13 14 15 16 17 18 19 20 21 22 23 24 25 26 27 28 29 30 31 32 33 34 35 36 37 38 39 40 41 42 43 44 45 46 47 48 49 50

963
ASUS43 KEAX 150010
RWREAX

WEATHER ROUNDUP FOR EASTERN KANSAS AND NORTHWEST MISSOURI
NATIONAL WEATHER SERVICE KANSAS CITY/PLEASANT HILL MO
600 PM CST THU DEC 14 2017

KSZ040-057-103>105-MOZ028-029-037-043-150100-
...KANSAS CITY METROPOLITAN AREA...

CITY           SKY/WX    TMP DP  RH WIND       PRES   REMARKS
K.C. INTL      CLOUDY    37  24  59 CALM      30.09R
6HR MIN TEMP:  37; 6HR MAX TEMP:  41;

K.C. DOWNTOWN  CLOUDY    41  24  51 SW3       30.09R
6HR MIN TEMP:  40; 6HR MAX TEMP:  42;

LEES SUMMIT    CLOUDY    38  23  55 CALM      30.09R
6HR MIN TEMP:  38; 6HR MAX TEMP:  40; 6HR PCP: TRACE;

OLATHE - IXD   CLOUDY    38  26  62 CALM      30.09R
6HR MIN TEMP:  38; 6HR MAX TEMP:  41;

OLATHE - OJC   CLOUDY    37  26  64 CALM      30.09R
6HR MIN TEMP:  37; 6HR MAX TEMP:  40;

LAWRENCE       CLOUDY    41  26  55 CALM      30.09R

$$

MOZ001>008-011>017-020>025-030>033-038>040-044>046-053-054-150100-
...NORTHERN AND CENTRAL MISSOURI...

CITY           SKY/WX    TMP DP  RH WIND       PRES   REMARKS
ST. JOSEPH     CLOUDY    39  26  59 N5        30.10R
6HR MIN TEMP:  38; 6HR MAX TEMP:  43;

MOSBY          CLOUDY    37  23  56 CALM      30.10R
WARRENSBURG    CLOUDY    34  27  75 CALM      30.10S
WHITEMAN AFB   CLOUDY    34  23  64 SE3       30.06R
6HR MIN TEMP:  34; 6HR MAX TEMP:  37;

CLINTON        CLOUDY    36  27  69 CALM      30.11S
SEDALIA        CLOUDY    36  25  64 CALM      30.11S
6HR MIN TEMP:  35; 6HR MAX TEMP:  37;

WARSAW         NOT AVBL
CHILLICOTHE      N/A     34  23  64 CALM      30.12R
6HR MIN TEMP:  33; 6HR MAX TEMP:  36;

KIRKSVILLE     CLOUDY    31  25  78 CALM      30.10R
6HR MIN TEMP:  28; 6HR MAX TEMP:  32;


$$

MOZ041-047>049-056>058-063>065-088>090-097-150100-
...EASTERN AND SOUTHERN MISSOURI...

CITY           SKY/WX    TMP DP  RH WIND       PRES   REMARKS
ST. LOUIS INTL CLOUDY    31  20  63 NW5       30.12R WCI  26
6HR MIN TEMP:  31; 6HR MAX TEMP:  32;

SPIRIT OF STL  CLOUDY    32  21  64 CALM      30.11R
COLUMBIA       CLOUDY    32  21  64 NE3       30.10R
JEFFERSON CITY CLOUDY    34  21  59 CALM      30.12R
ROLLA          CLOUDY    32  22  66 NW6       30.09R WCI  26
OSAGE BEACH    CLOUDY    34  22  61 N3        30.12R
SPRINGFIELD    CLOUDY    36  25  64 N3        30.08R
BRANSON        CLOUDY    37  23  56 NW9       30.09R WCI  31
JOPLIN         PTCLDY    35  27  72 W6        30.11R WCI  30
WEST PLAINS    CLOUDY    36  21  54 N9        30.09R WCI  29

$$

IAZ060-094-KSZ022-034>040-054-083-096-NEZ052-066-093-150100-
...KANSAS...SOUTHEAST NEBRASKA AND IOWA...

CITY           SKY/WX    TMP DP  RH WIND       PRES   REMARKS
TOPEKA         CLOUDY    44  27  51 W5        30.09R
6HR MIN TEMP:  43; 6HR MAX TEMP:  48;

MANHATTAN      CLOUDY    44  31  60 NW6       30.10R
EMPORIA        CLOUDY    43  28  55 NW8       30.09R
CHANUTE        PTCLDY    34  25  69 CALM      30.10R
WICHITA        CLOUDY    48  31  51 NW13      30.11R
OMAHA          CLOUDY    38  24  57 N3        30.10R
LINCOLN        CLOUDY    37  33  85 NW8       30.13R WCI  31
FALLS CITY     CLOUDY    40  25  55 N6        30.09R
LAMONI         CLOUDY    32  23  69 NW3       30.08R
DES MOINES     CLOUDY    32  20  61 CALM      30.08S

$$





USA.gov is the U.S. government's official web portal to all federal, state and local government web resources and services.